Location: Bayshore Village Mobile Home Park
(26.6945°N, 81.8642°W)
Time: 22:14:04
(UTC+00:00)

Timation 2 Rocket - Pass Details

Date: 17 June 2021
Orbit: 906 x 1075 km, 70.0° (Epoch: 31 July)

Event Time Altitude Azimuth Distance (km) Brightness Sun altitude
Rises 00:52:14 0° 339° (NNW) 3,593 7.9 -6.6°
Reaches altitude 10° 00:54:43 10° 339° (NNW) 2,667 7.2 -7.1°
Maximum altitude 01:00:55 87° 252° (WSW) 980 4.1 -8.3°
Drops below altitude 10° 01:07:24 10° 163° (SSE) 2,775 5.9 -9.5°
Enters shadow 01:09:19 - 163° (SSE) 3,483 6.4 -9.9°
